KF4URA Weather Reports


Display with metric or nautical units.
time (UTC)temp
F
wind
direction
speed
MPH
gust
MPH
rain 1hr
in
rain 24hr
in
rain mn
in
humidity
%
barometer
mb
20260901131201 78 195 0.0 0.0 0.00 0.00 0.00 85 1015.9
20260901130146 77 198 0.0 0.0 0.00 0.00 0.00 87 1015.9
20260901125159 77 192 0.0 0.0 0.00 0.00 0.00 87 1016.2
20260901124221 76 192 0.0 0.0 0.00 0.00 0.00 87 1016.3
20260901123219 76 192 0.0 0.0 0.00 0.00 0.00 88 1016.2
20260901122148 75 192 0.0 0.0 0.00 0.00 0.00 89 1016.2
20260901121140 75 192 0.0 0.0 0.00 0.00 0.00 89 1016.1
20260901115017 75 192 0.0 0.0 0.00 0.00 0.00 89 1015.9
20260901112832 75 192 0.0 0.0 0.00 0.00 0.00 89 1015.7
20260901110717 75 192 0.0 0.0 0.00 0.00 0.00 89 1015.6
20260901105738 75 192 0.0 0.0 0.00 0.00 0.00 88 1015.6
20260901104743 75 192 0.0 0.0 0.00 0.00 0.00 88 1015.5
20260901103754 75 192 0.0 0.0 0.00 0.00 0.00 88 1015.4
20260901101648 75 192 0.0 0.0 0.00 0.00 0.00 89 1015.3
20260901100651 75 192 0.0 0.0 0.00 0.00 0.00 89 1015.2
20260901095632 75 192 0.0 0.0 0.00 0.00 0.00 90 1015.2
20260901094616 75 192 0.0 0.0 0.00 0.00 0.00 90 1015.2
20260901092450 75 192 0.0 0.0 0.00 0.00 0.00 90 1015.0
20260901090310 75 192 0.0 0.0 0.00 0.00 0.00 90 1015.0
20260901085305 75 192 0.0 0.0 0.00 0.00 0.00 90 1014.9
20260901084312 75 192 0.0 0.0 0.00 0.00 0.00 90 1015.0
20260901083243 75 192 0.0 0.0 0.00 0.00 0.00 90 1015.0
20260901082300 75 192 0.0 0.0 0.00 0.00 0.00 90 1014.9
20260901080106 75 192 0.0 0.0 0.00 0.00 0.00 90 1014.9
20260901075109 75 192 0.0 0.0 0.00 0.00 0.00 91 1014.8
20260901072919 75 192 0.0 0.0 0.00 0.00 0.00 91 1014.9
20260901071855 75 192 0.0 0.0 0.00 0.00 0.00 91 1014.8
20260901070847 75 192 0.0 0.0 0.00 0.00 0.00 91 1014.9
20260901065844 75 192 0.0 0.0 0.00 0.00 0.00 91 1014.9
20260901064858 75 192 0.0 0.0 0.00 0.00 0.00 91 1014.9
20260901063834 75 192 0.0 0.0 0.00 0.00 0.00 90 1014.9
20260901062855 75 192 0.0 0.0 0.00 0.00 0.00 90 1014.8
20260901061910 75 192 0.0 0.0 0.00 0.00 0.00 90 1014.8
20260901060915 76 192 0.0 0.0 0.00 0.00 0.00 89 1014.9
20260901054754 76 192 0.0 0.0 0.00 0.00 0.00 88 1015.1
20260901053720 76 192 0.0 0.0 0.00 0.00 0.00 88 1015.3
20260901052704 77 192 0.0 0.0 0.00 0.00 0.00 87 1015.3
20260901051638 77 192 0.0 0.0 0.00 0.00 0.00 86 1015.2
20260901050659 78 192 0.0 0.0 0.00 0.00 0.00 84 1015.0
20260901042157 80 192 0.0 0.0 0.00 0.00 0.00 80 1014.9
20260901041203 80 192 0.0 0.0 0.00 0.00 0.00 80 1014.9
20260901040221 80 207 0.0 1.0 0.00 0.00 0.00 80 1014.7
20260901034116 80 207 0.0 1.0 0.00 0.00 0.00 81 1014.4
20260901033140 79 207 0.0 2.0 0.00 0.00 0.00 82 1014.4
20260901032158 78 208 0.0 2.0 0.00 0.00 0.00 85 1014.6
20260901024907 74 208 0.0 0.0 0.00 0.00 0.00 92 1015.3
20260901023842 74 208 0.0 0.0 0.00 0.00 0.00 92 1015.6
20260901022851 74 208 0.0 0.0 0.00 0.00 0.00 91 1015.7
20260901021859 75 208 0.0 0.0 0.00 0.00 0.00 91 1015.8
20260901020903 75 208 0.0 0.0 0.00 0.00 0.00 91 1015.7
20260901015925 75 208 0.0 0.0 0.00 0.00 0.00 90 1015.9
20260901014934 75 208 0.0 0.0 0.00 0.00 0.00 90 1016.0
20260901013936 76 208 0.0 0.0 0.00 0.00 0.00 90 1016.1
20260901012950 76 208 0.0 0.0 0.00 0.00 0.00 89 1016.3
20260901012003 76 208 0.0 0.0 0.00 0.00 0.00 89 1016.2
20260901011007 77 208 0.0 0.0 0.00 0.00 0.00 87 1016.1
20260901005940 77 208 0.0 0.0 0.00 0.00 0.00 86 1015.8
20260901004932 78 208 0.0 0.0 0.00 0.00 0.00 85 1015.7
20260901002824 79 208 0.0 0.0 0.00 0.00 0.00 84 1015.7
20260901001848 80 208 0.0 0.0 0.00 0.00 0.00 83 1015.8
20260901000822 81 208 0.0 0.0 0.00 0.00 0.00 81 1015.8
20260831233533 83 208 0.0 0.0 0.00 0.00 0.00 78 1015.6
20260831231408 83 208 0.0 0.0 0.00 0.00 0.00 76 1015.6
20260831230409 83 208 0.0 0.0 0.00 0.00 0.00 76 1015.5
20260831225406 83 208 0.0 0.0 0.00 0.00 0.00 75 1015.5
20260831224341 83 208 0.0 0.0 0.00 0.00 0.00 74 1015.5
20260831223311 83 208 0.0 0.0 0.00 0.00 0.00 74 1015.5
20260831222251 84 208 0.0 0.0 0.00 0.00 0.00 73 1015.2
20260831221302 84 208 0.0 0.0 0.00 0.00 0.00 72 1015.1
20260831220237 84 208 0.0 0.0 0.00 0.00 0.00 71 1015.0
20260831215219 84 208 0.0 0.0 0.00 0.00 0.00 70 1015.0
20260831213014 84 208 0.0 0.0 0.00 0.00 0.00 69 1015.0
20260831211947 85 209 0.0 1.0 0.00 0.00 0.00 69 1015.2
20260831210950 85 209 0.0 0.0 0.00 0.00 0.00 71 1015.3
20260831204858 85 208 0.0 2.0 0.00 0.00 0.00 69 1015.5
20260831201600 85 212 0.0 0.0 0.00 0.00 0.00 71 1015.9
20260831194301 85 212 0.0 0.0 0.00 0.00 0.00 71 1016.2
20260831193317 85 212 0.0 0.0 0.00 0.00 0.00 71 1016.3
20260831192305 85 212 0.0 1.0 0.00 0.00 0.00 69 1016.3
20260831191231 85 212 0.0 5.0 0.00 0.00 0.00 69 1016.4
20260831190159 85 180 0.0 2.0 0.00 0.00 0.00 69 1016.4
20260831185210 86 295 0.0 1.0 0.00 0.00 0.00 69 1016.5
20260831184145 86 277 0.0 1.0 0.00 0.00 0.00 69 1016.7
20260831182014 86 189 0.0 0.0 0.00 0.00 0.00 67 1016.9
20260831180959 86 287 1.0 5.0 0.00 0.00 0.00 66 1017.0
20260831180005 87 225 1.0 3.0 0.00 0.00 0.00 67 1017.0
20260831175024 87 291 2.0 5.0 0.00 0.00 0.00 65 1017.1
20260831174012 87 289 1.0 5.0 0.00 0.00 0.00 66 1017.1
20260831173003 86 255 1.0 3.0 0.00 0.00 0.00 66 1017.2
20260831171952 86 254 1.0 6.0 0.00 0.00 0.00 66 1017.3
20260831170958 86 294 1.0 6.0 0.00 0.00 0.00 64 1017.3
20260831165933 86 180 0.0 3.0 0.00 0.00 0.00 64 1017.4
20260831164906 86 190 0.0 2.0 0.00 0.00 0.00 65 1017.5
20260831163833 87 260 1.0 3.0 0.00 0.00 0.00 64 1017.5
20260831162838 86 282 1.0 3.0 0.00 0.00 0.00 64 1017.6
20260831161819 86 286 0.0 4.0 0.00 0.00 0.00 65 1017.5
20260831160836 85 291 1.0 5.0 0.00 0.00 0.00 69 1017.6
20260831155817 84 231 0.0 3.0 0.00 0.00 0.00 71 1017.6
20260831153651 83 182 0.0 5.0 0.00 0.00 0.00 73 1017.5
20260831152705 82 173 0.0 0.0 0.00 0.00 0.00 75 1017.4
20260831151643 82 173 0.0 0.0 0.00 0.00 0.00 76 1017.5
20260831145538 81 175 0.0 1.0 0.00 0.00 0.00 76 1017.4
20260831144537 80 175 0.0 0.0 0.00 0.00 0.00 78 1017.4
20260831143505 79 311 0.0 0.0 0.00 0.00 0.00 81 1017.3
20260831142433 78 311 0.0 0.0 0.00 0.00 0.00 82 1017.2
20260831141410 78 311 0.0 0.0 0.00 0.00 0.00 82 1017.1
20260831140340 77 311 0.0 0.0 0.00 0.00 0.00 82 1017.0
20260831134200 76 311 0.0 0.0 0.00 0.00 0.00 84 1017.1
20260831133158 75 311 0.0 0.0 0.00 0.00 0.00 86 1017.2